EHI
0 0 0 0 0 0 0 0 0 0 0 0 0 0 0 0 0 0 0 0 0 0 0 0 1 2 3 3 3 3 3 3 4 3 2 1 0 0 0 0 0 0 0 0
0 0 0 0 0 0 0 0 0 0 0 0 0 0 0 0 0 0 0 0 0 0 0 0 1 2 3 3 3 2 1 2 2 1 1 0 0 0 0 0 0 0 0 0
0 0 0 0 0 0 0 0 0 0 0 0 0 0 0 0 0 0 0 0 0 0 0 0 0 1 2 2 2 2 1 1 1 0 0 0 0 0 0 0 0 0 0 0
0 0 0 0 0 0 0 0 0 0 0 0 0 0 0 0 0 0 0 0 0 0 0 0 0 0 1 1 1 2 2 2 2 1 0 0 0 0 0 0 0 0 0 0
0 0 0 0 0 0 0 0 0 0 0 0 0 0 0 0 0 0 0 0 0 0 0 0 0 0 0 0 0 1 1 2 2 1 0 0 1 1 0 0 0 0 0 0
0 0 0 0 0 0 0 0 0 0 0 0 0 0 0 0 0 0 0 0 0 0 0 0 0 0 0 0 0 0 0 1 1 1 0 1 2 2 1 0 0 0 0 0
0 0 0 0 0 0 0 0 0 0 0 0 0 0 0 0 0 0 0 0 0 0 0 0 0 0 0 0 0 0 0 0 0 0 0 1 2 2 1 0 0 0 0 0
0 0 0 0 0 0 0 0 0 0 0 0 0 0 0 0 0 0 0 0 0 0 0 0 0 0 0 0 0 0 0 0 0 0 0 0 1 1 0 0 0 0 0 0
0 0 0 0 0 0 0 0 0 0 0 0 0 0 0 0 0 0 0 0 0 0 0 0 0 0 0 0 0 0 0 0 0 0 0 0 0 0 0 0 0 0 0 0
0 0 0 0 0 0 0 0 0 0 0 0 0 0 0 0 0 0 0 0 0 0 0 0 0 0 0 0 0 0 0 0 0 0 0 0 0 0 0 0 0 0 0 0
0 0 0 0 0 0 0 0 0 0 0 0 0 0 0 0 0 0 0 0 0 0 0 0 0 0 0 0 0 0 0 0 0 0 0 0 0 0 0 0 0 0 0 0
0 0 0 0 0 0 0 0 0 0 0 0 0 0 0 0 0 0 0 0 0 0 0 0 0 0 0 0 0 0 0 0 0 0 0 0 0 0 0 0 0 0 0 0
0 0 0 0 0 0 0 0 0 0 0 0 0 0 0 0 0 0 0 0 0 0 0 0 0 0 0 0 0 0 0 0 0 0 0 0 0 0 0 0 0 0 0 0
0 0 0 0 0 0 0 0 0 0 0 0 0 0 0 0 0 0 0 0 0 0 0 0 0 0 0 0 0 0 0 0 0 0 0 0 0 0 0 0 0 0 0 0
0 0 0 0 0 0 0 0 0 0 0 0 0 0 0 0 0 0 0 0 0 0 0 0 0 0 0 0 0 0 0 0 0 0 0 0 0 0 0 0 0 0 0 0
0 0 0 0 0 0 0 0 0 0 0 0 0 0 0 0 0 0 0 0 0 0 0 0 0 0 0 0 0 0 0 0 0 0 0 0 0 0 0 0 0 0 0 0
0 0 0 0 0 0 0 0 0 0 0 0 0 0 0 0 0 0 0 0 0 0 0 0 0 0 0 0 0 0 0 0 0 0 0 0 0 0 0 0 0 0 0 0
0 0 0 0 0 0 0 0 0 0 0 0 0 0 0 0 0 0 0 0 0 0 0 0 0 0 0 0 0 0 0 0 0 0 0 0 0 0 0 0 0 0 0 0
0 0 0 0 0 0 0 0 0 0 0 0 0 0 0 0 0 0 0 0 0 0 0 0 0 0 0 0 0 0 0 0 0 0 0 0 0 0 0 0 0 0 0 0
0 0 0 0 0 0 0 0 0 0 0 0 0 0 0 0 0 0 0 0 0 0 0 0 0 0 0 0 0 0 0 0 0 0 0 0 0 0 0 0 0 0 0 0
0 0 0 0 0 0 0 0 0 0 0 0 0 0 0 0 0 0 0 0 0 0 0 0 0 0 0 0 0 0 0 0 0 0 0 0 0 0 0 0 0 0 0 0
0 0 0 0 0 0 0 0 0 0 0 0 0 0 0 0 0 0 0 0 0 0 0 0 0 0 0 0 0 0 0 0 0 0 0 0 0 0 0 0 0 0 0 0
0 0 0 0 0 0 0 0 0 0 0 0 0 0 0 0 0 0 0 0 0 0 0 0 0 0 0 0 0 0 0 0 0 0 0 0 0 0 0 0 0 0 0 0
0 0 0 0 0 0 0 0 0 0 0 0 0 0 0 0 0 0 0 0 0 0 0 0 0 0 0 0 0 0 0 0 0 0 0 0 0 0 0 0 0 0 0 0
0 0 0 0 0 0 0 0 0 0 0 0 0 0 0 0 0 0 0 0 0 0 0 0 0 0 0 0 0 0 0 0 0 0 0 0 0 0 0 0 0 0 0 0
0 0 0 0 0 0 0 0 0 0 0 0 0 0 0 0 0 0 0 0 0 0 0 0 0 0 0 0 0 0 0 0 0 0 0 0 0 0 0 0 0 0 0 0
Wind_Speed
2 4 7 8 7 4 8 10 11 8 5 10 14 15 12 8 11 14 14 13 12 9 6 4 5 6 6 7 7 8 8 8 6 5 5 5 5 5 4 4 5 5 5 6
5 4 3 4 4 6 9 9 9 6 5 8 11 15 14 12 13 14 15 15 14 11 8 6 6 6 7 7 7 7 7 6 6 5 4 3 3 3 3 3 3 4 4 5
4 3 4 6 7 7 8 9 8 6 5 6 7 13 16 15 15 14 15 14 14 13 11 9 8 7 7 7 7 6 6 6 5 5 4 3 3 2 3 4 3 2 3 3
3 2 5 7 6 7 6 5 6 7 8 7 9 9 13 14 16 16 17 15 14 13 11 10 9 8 8 6 5 6 6 5 4 4 5 6 5 5 4 3 2 2 1 2
3 4 6 7 5 6 3 4 4 6 8 6 9 10 8 9 15 17 18 16 15 12 12 10 9 8 7 7 6 5 5 5 4 3 4 5 4 3 2 3 3 2 1 0
2 2 3 3 2 3 5 5 3 3 5 9 12 11 9 9 13 14 14 14 14 12 10 9 8 8 7 7 6 6 6 5 4 4 4 4 5 4 4 4 3 2 1 0
2 3 2 3 5 5 6 6 5 6 7 8 6 10 10 6 8 10 10 10 10 9 9 9 10 10 9 9 8 7 7 6 5 4 4 3 3 3 3 3 2 2 1 1
4 5 6 5 5 7 8 7 5 5 6 4 6 11 7 4 5 7 8 8 7 8 8 9 11 10 10 10 9 8 7 7 5 5 4 3 3 1 1 1 0 1 0 1
5 4 4 3 2 5 7 6 1 2 1 4 7 6 7 6 7 7 7 6 7 7 7 9 10 10 10 10 9 8 8 7 6 5 4 4 3 2 2 2 1 1 1 1
3 3 4 3 3 2 3 4 4 4 5 6 7 8 6 5 5 4 4 5 5 5 7 8 9 10 9 9 8 7 7 7 6 5 4 3 3 3 2 2 1 1 1 1
3 4 4 5 8 9 7 6 6 5 4 5 5 4 2 3 2 3 3 3 4 5 7 8 9 9 9 8 8 8 7 7 6 5 4 4 3 3 2 2 1 1 1 1
4 3 3 5 2 3 8 9 9 6 6 5 6 4 2 3 3 4 4 3 3 4 6 8 9 9 9 9 8 8 7 7 6 5 5 4 4 3 2 2 2 1 1 2
5 4 3 4 4 5 7 9 10 7 4 6 8 7 3 2 4 4 4 3 3 5 7 8 9 10 10 9 9 8 8 7 6 6 5 5 4 4 3 3 2 2 2 2
4 5 6 6 1 5 7 10 12 10 7 9 14 14 9 8 8 7 6 6 5 6 8 10 10 10 10 9 9 9 8 7 7 7 6 5 5 4 3 3 3 3 3 3
4 4 6 7 6 6 8 11 13 15 14 12 14 16 16 14 13 11 10 8 8 8 10 11 12 11 11 10 10 9 9 8 8 7 7 6 5 5 4 4 4 4 3 3
4 4 4 7 7 9 11 14 15 17 17 19 19 21 16 14 13 12 12 11 11 11 12 12 13 12 12 12 11 10 10 9 9 8 7 7 6 6 5 5 5 4 4 4
3 4 4 6 5 6 12 13 16 14 14 14 18 18 14 13 13 13 12 11 12 12 12 12 13 13 13 12 12 12 11 10 10 9 8 8 7 7 6 6 6 5 5 4
6 5 4 4 4 11 5 1 7 12 14 15 16 16 14 14 13 12 11 12 12 11 11 11 11 11 11 10 10 10 10 11 10 9 9 8 8 7 7 7 6 6 5 4
9 7 5 4 7 10 7 4 6 7 9 9 13 14 13 10 9 9 8 10 11 10 9 8 9 9 9 10 11 11 11 11 10 10 10 9 9 8 8 7 7 6 5 5
6 7 6 6 7 7 3 1 2 3 6 3 6 8 7 4 5 3 4 5 6 6 5 5 5 7 8 10 11 11 11 11 11 10 10 9 9 9 8 8 7 6 5 5
4 6 8 9 9 8 4 1 5 5 2 2 3 5 5 5 6 6 6 5 3 2 2 4 6 6 7 9 11 11 10 11 9 9 9 9 9 8 8 7 7 6 6 6
6 6 7 7 8 7 2 5 5 4 4 4 5 4 5 6 6 6 4 3 1 0 2 3 5 5 6 8 10 9 9 8 8 9 9 9 8 7 7 7 7 7 7 7
7 6 4 6 6 3 1 4 5 5 6 6 5 5 5 5 5 4 3 2 1 1 2 3 4 5 5 7 8 8 7 8 9 9 9 9 8 8 8 8 8 7 7 6
5 4 6 8 9 8 8 8 7 7 8 8 7 7 5 6 5 4 3 2 2 2 2 3 4 5 5 7 7 7 7 9 9 9 9 8 8 8 8 7 7 7 7 7
7 5 7 10 10 10 6 5 8 8 7 7 8 7 6 6 6 5 4 3 2 2 3 3 4 5 5 6 6 6 7 9 9 9 8 8 8 8 7 7 7 8 8 8
7 8 8 8 7 8 10 9 11 11 10 9 8 7 6 5 6 5 4 3 2 3 3 3 4 4 4 5 6 7 8 9 9 8 8 7 7 6 6 7 6 9 9 11
Wind_Direction
125 169 177 177 194 195 179 194 196 199 188 210 224 233 234 230 229 231 231 232 229 230 224 206 206 201 196 197 199 198 197 198 197 194 199 204 208 208 210 217 227 230 235 234
141 172 161 155 167 165 178 191 198 196 198 219 231 240 239 237 237 236 235 233 232 228 218 207 202 195 195 192 192 192 191 191 195 198 196 201 199 210 211 205 217 232 238 241
144 131 169 170 167 171 188 201 198 194 182 214 238 243 235 233 236 237 237 236 235 231 227 213 203 195 190 187 185 184 182 183 189 192 185 170 176 189 196 202 205 222 239 242
113 166 180 176 182 187 188 202 204 202 202 207 217 248 229 225 227 229 231 229 228 228 229 221 208 199 189 179 171 174 167 164 169 186 196 199 207 215 214 210 203 201 219 246
150 178 180 185 193 197 168 162 191 210 220 227 213 245 247 215 230 229 228 228 229 227 226 219 207 198 181 167 162 158 152 145 147 166 187 200 209 213 198 201 205 200 179 288
128 185 214 193 166 178 145 144 141 193 218 236 220 229 254 220 229 231 228 228 229 229 226 219 201 184 172 161 155 153 148 136 137 146 160 180 188 192 197 206 212 210 202 211
151 176 188 192 158 162 183 172 178 190 208 230 192 227 249 241 237 242 241 235 230 225 217 206 194 185 175 168 161 158 151 139 132 129 132 142 161 184 203 212 217 221 219 226
174 179 183 190 197 184 193 209 224 216 211 193 190 233 246 251 254 256 259 258 246 231 216 203 195 186 176 170 165 161 155 144 137 130 121 118 124 136 133 147 203 230 304 10
192 171 152 188 194 189 183 210 273 307 283 241 222 241 268 244 240 241 248 250 243 229 214 201 189 182 174 170 168 163 156 148 142 135 131 122 115 115 118 119 109 83 54 26
199 173 172 164 176 202 241 171 175 208 222 237 236 241 239 203 215 229 249 252 247 224 205 193 184 178 173 166 160 159 158 151 145 142 132 122 117 113 119 125 117 97 61 39
206 188 167 184 208 197 179 191 213 216 251 257 254 234 200 232 243 260 279 279 252 216 198 187 180 174 167 162 162 162 159 156 152 148 141 140 130 126 129 124 110 95 78 61
200 205 199 209 218 254 222 215 207 217 218 236 268 263 114 239 268 273 282 282 238 206 191 183 178 173 172 171 171 169 168 166 159 153 152 145 140 144 147 134 118 108 100 82
175 188 185 190 201 201 222 222 223 235 247 229 240 251 129 232 257 258 264 267 223 200 190 186 184 184 182 180 178 176 175 170 163 162 162 159 159 161 154 141 127 121 115 108
190 216 233 240 245 179 207 213 214 214 227 239 242 257 252 259 267 267 262 265 249 219 205 198 195 194 190 187 183 181 178 172 168 169 172 172 169 163 151 143 139 131 124 116
207 238 244 260 262 238 236 231 220 222 232 245 256 260 264 270 274 276 272 265 253 233 217 208 204 199 193 190 188 185 181 176 173 175 177 173 166 159 155 154 147 138 130 121
230 249 250 255 248 246 252 246 237 237 240 247 259 266 269 275 274 270 265 257 248 238 226 216 211 205 200 196 191 186 184 179 177 180 177 168 169 167 166 162 155 147 139 134
226 235 247 258 259 257 252 241 233 231 231 238 250 260 274 272 267 266 265 257 249 244 233 222 214 209 205 199 192 189 184 175 179 181 175 172 174 174 170 166 162 158 152 145
224 225 245 260 240 242 256 218 237 242 249 244 253 267 274 278 284 281 271 261 254 247 237 227 218 211 204 193 188 182 174 176 180 180 178 176 176 175 172 171 169 165 159 154
222 221 234 241 251 268 272 235 211 227 260 251 252 264 275 287 287 270 260 256 254 253 244 232 217 205 191 184 177 172 174 178 181 184 182 180 179 177 177 177 174 169 166 159
207 220 234 236 251 258 283 129 180 222 258 252 247 269 285 274 267 297 350 307 272 259 246 221 194 182 179 174 169 173 177 182 188 186 182 179 180 181 181 179 173 171 171 168
185 204 225 238 249 263 285 154 165 227 304 5 274 280 277 252 275 322 328 322 309 269 210 178 171 173 173 166 170 179 182 190 186 175 173 176 180 182 179 174 171 171 172 171
220 217 218 224 234 248 136 154 209 288 337 306 295 293 283 274 284 292 303 311 309 165 149 162 164 160 159 167 176 183 189 180 167 168 172 177 180 177 174 173 172 175 177 180
236 244 256 239 252 330 228 239 281 302 291 297 301 298 289 282 284 284 284 280 256 213 168 166 166 157 164 177 186 190 182 168 167 171 176 178 178 178 176 178 178 179 186 192
258 256 256 264 267 281 287 285 289 285 279 290 293 292 283 278 281 275 271 261 237 208 189 178 175 179 183 187 194 192 173 170 173 178 179 179 181 182 182 185 187 190 193 197
269 264 261 267 282 294 286 302 310 303 293 294 295 285 277 277 278 271 264 253 240 220 200 194 199 201 197 189 193 186 177 175 181 184 183 183 187 186 187 195 199 201 206 206
243 244 254 268 295 296 296 307 310 302 294 290 289 285 281 271 272 273 264 253 233 220 206 205 210 211 203 195 196 188 183 184 184 185 186 187 188 189 192 196 204 216 219 219